AKDT,Max TemperatureF,Mean TemperatureF,Min TemperatureF,Max Dew PointF,MeanDew PointF,Min DewpointF,Max Humidity, Mean Humidity, Min Humidity, Max Sea Level PressureIn, Mean Sea Level PressureIn, Min Sea Level PressureIn, Max VisibilityMiles, Mean VisibilityMiles, Min VisibilityMiles, Max Wind SpeedMPH, Mean Wind SpeedMPH, Max Gust SpeedMPH,PrecipitationIn, CloudCover, Events, WindDirDegrees
2013-5-1,41,38,35,39,35,33,92,86,79,30.19,30.00,29.89,10,6,3,39,26,50,0.80,8,Rain,114
2013-5-2,45,43,41,43,41,39,96,93,89,30.44,30.24,30.05,10,9,6,21,10,30,0.32,8,Rain,86
2013-5-3,48,45,42,43,42,41,96,91,86,30.51,30.42,30.28,10,9,5,22,15,27,0.10,8,Rain,103
2013-5-4,50,48,46,46,45,44,93,90,86,30.26,30.24,30.21,9,6,2,28,19,35,0.40,8,Rain,114
2013-5-5,50,48,45,44,43,41,93,87,80,30.22,30.14,30.04,10,9,6,16,7,21,T,8,,354
2013-5-6,50,46,41,40,37,33,93,77,61,30.24,30.15,30.04,10,10,10,14,5,17,0.01,7,Rain,287
2013-5-7,53,42,30,37,34,30,100,75,50,30.25,30.19,30.13,10,10,10,16,6,18,0.00,1,Fog,241
2013-5-8,60,46,32,37,33,30,100,68,36,30.22,30.16,30.14,10,10,10,13,5,14,0.00,2,,244
2013-5-9,65,50,34,39,35,31,96,63,30,30.29,30.25,30.22,10,10,10,13,4,13,0.00,6,,249
2013-5-10,66,50,33,40,35,32,92,62,31,30.25,30.13,30.01,10,10,10,13,4,15,0.00,5,,254
2013-5-11,50,48,45,48,44,38,93,80,66,30.01,29.79,29.68,10,7,3,14,3,17,0.13,8,Rain,109
2013-5-12,54,49,44,48,46,43,100,92,83,29.67,29.61,29.59,10,6,0,18,8,23,0.13,8,Fog-Rain,107
2013-5-13,51,48,45,45,44,42,93,84,74,29.67,29.63,29.58,10,10,7,30,16,37,0.23,8,Rain,106
2013-5-14,48,47,45,43,42,41,92,89,86,29.86,29.79,29.68,10,9,5,24,16,29,0.13,8,Rain,122
2013-5-15,54,48,41,45,41,37,92,76,59,30.00,29.93,29.87,10,10,10,15,7,24,0.06,8,Rain,98
2013-5-16,56,47,38,45,41,37,100,80,59,30.00,29.95,29.87,10,10,3,21,6,24,0.00,6,Fog-Rain,112
2013-5-17,55,51,46,47,45,43,93,82,71,29.85,29.77,29.71,10,10,8,21,13,25,0.07,8,Rain,104
2013-5-18,48,43,38,45,42,35,93,82,70,30.22,29.89,29.71,10,9,5,25,11,32,0.38,8,Rain,116
2013-5-19,44,39,33,37,34,30,92,84,76,30.51,30.42,30.25,10,9,4,24,7,29,0.11,7,Rain-Snow,50
2013-5-20,54,42,30,35,27,16,100,61,22,30.52,30.47,30.39,10,8,0,18,5,23,0.00,3,Fog,251
2013-5-21,63,48,32,36,25,18,82,51,19,30.38,30.25,30.10,10,10,10,17,6,29,0.00,1,,270
2013-5-22,62,48,34,37,33,30,85,59,32,30.10,30.08,30.05,10,10,10,15,4,23,0.00,2,,243
2013-5-23,63,49,35,41,36,32,92,64,36,30.09,30.00,29.93,10,10,10,16,6,17,0.00,6,,248
2013-5-24,57,51,45,48,43,38,83,71,59,30.01,29.96,29.93,10,10,10,9,3,11,0.02,7,Rain,244
2013-5-25,61,52,43,47,44,41,93,74,52,30.04,30.02,29.98,10,10,10,12,4,,0.00,6,Rain,221
2013-5-26,65,53,40,48,44,38,100,76,52,30.00,29.94,29.87,10,10,10,13,4,17,0.00,2,,234
2013-5-27,68,57,46,47,45,43,93,69,45,29.88,29.75,29.62,10,10,10,14,6,18,0.00,3,,216
2013-5-28,73,59,45,48,45,43,93,64,35,29.66,29.61,29.55,10,10,10,15,7,19,0.00,2,,225
2013-5-29,68,58,47,50,47,43,96,73,49,29.89,29.72,29.58,10,10,5,28,12,36,0.10,6,Rain,95
2013-5-30,59,55,50,50,49,47,93,80,67,30.04,29.97,29.89,10,10,10,12,4,14,0.05,8,Rain,254
2013-5-31,52,49,45,50,48,44,100,93,86,30.25,30.16,30.04,10,8,4,13,5,16,1.10,8,Fog-Rain,32